Regional Weather Roundup
Issued by NWS

Home | Current Version | Previous Version | Text Only | Print | Product List | Glossary Off
Versions: 1 2 3 4 5 6 7 8 9 10 11 12 13 14 15 16 17 18 19 20 21 22 23 24 25 26 27 28 29 30 31 32 33 34 35 36 37 38 39 40 41 42 43 44 45 46 47 48 49 50

000
ASUS45 KSLC 020110
RWRUT

UTAH REGIONAL WEATHER ROUNDUP
NATIONAL WEATHER SERVICE SALT LAKE CITY UT
700 PM MDT MON JUN 01 2015

UTZ001>011-023>025-020200-

NORTHERN UTAH

CITY           SKY/WX    TMP DP  RH WIND       PRES   REMARKS
HILL AFB       NOT AVBL
LOGAN          MOSUNNY   67  45  45 N17       29.91F
OGDEN          CLOUDY    75  42  30 NW10      29.85S
PROVO AIRPORT  NOT AVBL
SALT LAKE CITY PTSUNNY   76  47  35 N18G28    29.82R
VERNAL         PTSUNNY   81  31  16 NW14G23   29.88F
WENDOVER       MOSUNNY   79  41  25 NW15G25   29.80S
HEBER CITY     MOSUNNY   79  23  12 SW14G32   29.90S
WEST JORDAN    SUNNY     82  34  17 S17G44    29.84S

$$

UTZ012>022-026-027-020200-

SOUTHERN/CENTRAL UTAH

CITY           SKY/WX    TMP DP  RH WIND       PRES   REMARKS
BLANDING       SUNNY     86  19   8 SW16G24   30.06F
BRYCE CANYON   SUNNY     73  20  13 SW23G31   30.15F
CEDAR CITY       N/A     79  21  11 SW25G36   29.98S
HANKSVILLE     SUNNY     91  19   7 SW23G31   29.87F
MILFORD          N/A     83  23  11 SW25G39   29.92S
MOAB/CYNLANDS  SUNNY     91  16   6 SW22G29   29.83F
PRICE          MOSUNNY   83  26  12 W13G24    29.92S
ST GEORGE      PTCLDY    93  30  10 S25G35    29.83S

$$

REGIONAL REPORTS     COLORADO/ARIZONA

CITY           SKY/WX    TMP DP  RH WIND       PRES   REMARKS
CRAIG, CO      MOSUNNY   76  46  34 S7        29.98F
GRAND JUNCTION MOSUNNY   86  33  15 SW7       29.87F
RIFLE          MOSUNNY   79  42  26 W5        29.94S
MONTROSE       MOSUNNY   85  29  13 SW15G26   29.99F
CORTEZ         SUNNY     86  32  14 SW14      30.03F
PAGE, AZ       CLOUDY    91  19   7 SW8       29.89S
GRAND CANYON   PTSUNNY   76  14   9 SW21G28   30.14F
KINGMAN        PTSUNNY   88   8   5 SW21G29   29.93F
FLAGSTAFF      MOSUNNY   72  21  14 SW21G29   30.19F

$$

REGIONAL REPORTS    NEVADA/IDAHO/WYOMING

CITY           SKY/WX    TMP DP  RH WIND       PRES   REMARKS
LAS VEGAS, NV  PTSUNNY   94  11   4 SW18G29   29.77S
ELY            SUNNY     79  30  16 SW15      29.96S
ELKO           SUNNY     78  25  14 W12       29.89S
POCATELLO, ID  MOSUNNY   60  51  72 E14       29.95R
BURLEY         MOSUNNY   70  46  42 SE5       29.90S
EVANSTON, WY   MOSUNNY   72  26  18 SW21G36   30.00R
ROCK SPRINGS   CLOUDY    65  36  34 NE7       30.01F

$$


USA.gov is the U.S. government's official web portal to all federal, state and local government web resources and services.